星链-4430 (STARLINK-4430 )

导读

STARLINK-4430是美国SpaceX公司于2022年8月12日发射的星链(Starlink)卫星,属于第二代星链星座。作为全球规模最大的低轨卫星互联网星座组成部分,它通过星间激光通信技术,为全球偏远、欠发达地区提供高速低延迟宽带互联网服务,支撑远程通信、应急联网等多元场景,助力构建天地一体化太空网络基础设施。

基本信息
目录编号:
53485
目录名称:
STARLINK-4430
国际标识:
2022-099W
轨道中心:
EARTH
卫星名称:
星链-4430
卫星全名:
星链-4430 (STARLINK-4430 )
卫星状态:
在轨 (已飞行1405 天)
发射日期:
2022-08-12 UTC
国别 :
美国 (US)
星等 :
--
轨道信息
数据来源 国际轨道数据 AOE轨道数据
星历时间 2026-06-17T05:18:15+0800
12小时前
查看轨道信息
2026-06-15T04:00:00+0800
2天前
查看轨道信息
半长轴 6927.722km 6927.646km
偏心率 0.0002855 0.0001767
轨道倾角 97.355° 97.360°
近地点辐角 161.870° 134.452°
升交点赤经 286.930° 284.971°
平近点角 198.263° 257.631°
近地点 547.607km 548.284km
远地点 551.563km 550.734km
周期 95.641分钟 95.640分钟
每日圈数 15.056261 15.056509
详细信息
固有亮度:
5
最大亮度:
2.5
卫星平台:
Starlink v1.5
覆盖范围:
全球
运营商:
太空探索技术公司
运营商所在国:
美国
制造商(研发单位):
太空探索技术公司
制造商所在国:
美国
使用方式:
暂无
卫星简介
星链(Starlink)计划是由太空探索技术公司(SpaceX)提出的一个巨型低轨卫星互联网星座项目,计划在2019年至2024年间在太空搭建由约1.2万颗卫星组成的“星链”网络,其中1584颗将部署在地球上空550千米处的近地轨道,并从2020年开始工作。该卫星仍在工作。
2D轨道图
3D轨道图
轨道高度分析图
轨道倾角分析图
轨道综合分析图
查看轨道综合分析图